Regional Weather Roundup
Issued by NWS Grand Forks, ND

Home | Current Version | Previous Version | Text Only | Print | Product List | Glossary Off
Versions: 1 2 3 4 5 6 7 8 9 10 11 12 13 14 15 16 17 18 19 20 21 22 23 24 25 26 27 28 29 30 31 32 33 34 35 36 37 38 39 40 41 42 43 44 45 46 47 48 49 50

000
ASUS43 KFGF 302210
RWRFGF
PRAIRIE TO PINES  WEATHER ROUNDUP
NATIONAL WEATHER SERVICE EASTERN NORTH DAKOTA/GRAND FORKS ND
500 PM CDT WED JUL 30 2014

 **SATELLITE DATA USED TO AUGMENT SKY COVER AT AUTOMATED STATIONS**
 *****  WEATHER ACROSS EASTERN NORTH DAKOTA  *****

CITY           SKY/WX    TMP DP  RH WIND       PRES   REMARKS
GRAND FORKS    MOSUNNY   80  57  45 N7        30.06S
GRAND FRKS AFB MOSUNNY   80  57  45 N9        30.07F
GRAND FRKS NWS   N/A     81 N/A N/A NW2         N/A
DEVILS LAKE    PTSUNNY   79  55  44 NW8G16    30.09F
FARGO          MOSUNNY   82  53  36 NW6       30.07F
WAHPETON ARPT  PTCLDY    79  46  31 N3        30.08F
$$

 ***** WEATHER ACROSS CENTRAL AND WESTERN NORTH DAKOTA  *****

CITY           SKY/WX    TMP DP  RH WIND       PRES   REMARKS
BISMARCK       PTSUNNY   83  56  39 E9        30.12F
MINOT          SUNNY     79  55  43 NW8       30.12F
JAMESTOWN      SUNNY     79  49  34 N7        30.11F
MINOT AFB      MOSUNNY   78  57  48 NE6       30.12F
GARRISON         N/A     79  61  53 CALM      30.13F
WILLISTON      SUNNY     85  41  21 N9        30.14F
DICKINSON      SUNNY     83  54  36 N7        30.14F
HETTINGER      MOSUNNY   81  51  35 NE8       30.17S
$$

 *****  OTHER AIRPORT OBSERVATIONS IN OUR AREA  *****

CITY           SKY/WX    TMP DP  RH WIND       PRES   REMARKS
WALHALLA       FAIR      81  55  41 N6          N/A
GRAFTON AIRPOR FAIR      81  54  39 N8        30.06F
VALLEY CITY AR FAIR      81  52  36 N12G17    30.11F
CANDO          FAIR      77  55  47 N8        30.11F
CAVALIER APRT  FAIR      81  52  36 N6        30.06F
GWINNER        CLEAR     81  54  39 NW7       30.11F
SHEYENNE NWR     N/A     82  52  35 NW6       29.95
ROLLA            N/A     77  54  44 N9        30.14S
 ***** THE ABOVE OBSERVATIONS ARE NON NWS ARE NOT QUALITY
       CONTROLLED AND MAY MIS-REPORT RAIN FOR SNOW...
$$

  *****  WEATHER ACROSS NORTHERN MINNESOTA  *****

CITY           SKY/WX    TMP DP  RH WIND       PRES   REMARKS
FLAG ISLAND    NOT AVBL
WARROAD        MOSUNNY   79  59  50 NW9       30.03F
ROSEAU         SUNNY     79  61  53 W10       30.04S
HALLOCK        SUNNY     81  55  41 N8        30.05F
THF RVR FALLS  SUNNY     77  55  47 NW8       30.07S
BAUDETTE       SUNNY     78  55  44 NW8       30.03F
WASKISH        PTSUNNY   75  61  60 W5        30.03F
CROOKSTON      SUNNY     79  55  44 N7        30.07F
$$
  *****  WEATHER ACROSS CENTRAL AND WEST MINNESOTA  *****

CITY           SKY/WX    TMP DP  RH WIND       PRES   REMARKS
FOSSTON        SUNNY     77  54  44 W8        30.08F
BEMIDJI        SUNNY     75  54  47 NW10      30.06F
PARK RAPIDS    MOSUNNY   78  52  40 W12       30.07S
ELBOW LAKE     FAIR      76  56  50 NW9       30.09F
WADENA         SUNNY     75  54  46 W9        30.08S
DETROIT LAKES  SUNNY     77  50  38 NW9       30.10F
MOORHEAD       MOSUNNY   79  54  41 N9        30.08F
FERGUS FALLS   MOSUNNY   79  48  34 NW9       30.08F
MORRIS MN      SUNNY     81  54  39 NW7       30.08F
STAPLES        SUNNY     79  50  36 W12G17    30.07S
$$
  *****  WEATHER ELSEWHERE ACROSS MINNESOTA  *****

CITY           SKY/WX    TMP DP  RH WIND       PRES   REMARKS
DULUTH         MOSUNNY   78  56  46 NW14G22   29.98S
INTRNTL FALLS  PTSUNNY   78  56  46 NW14      29.99S
ELY            MOSUNNY   72  57  60 NW7       29.98S
CLOQUET        MOSUNNY   77  54  44 NW13G20   30.00S
WHEATON        MOSUNNY   77  55  47 W6        30.10F
BRAINERD       PTSUNNY   76  56  49 N10       30.05F
HIBBING        MOSUNNY   78  55  44 NW15      30.00S
ALEXANDRIA     SUNNY     77  54  44 NW8       30.10F
SAINT CLOUD    MOSUNNY   83  53  35 NW7       30.05F
MINNEAPOLIS    MOSUNNY   80  54  40 W10       30.04S
$$

  *****  WEATHER ACROSS SOUTH DAKOTA  *****

CITY           SKY/WX    TMP DP  RH WIND       PRES   REMARKS
SIOUX FALLS    MOSUNNY   79  54  41 NW6       30.12S
BROOKINGS      NOT AVBL
WATERTOWN      MOSUNNY   78  53  41 N9        30.12F
HURON          MOSUNNY   81  54  39 VRB5      30.10F
SISSETON         N/A     80  54  40 MISG      30.09F
ABERDEEN       SUNNY     80  56  43 NE12      30.10F
MITCHELL       SUNNY     82  54  37 CALM      30.11F
PIERRE         SUNNY     87  52  29 SE10      30.06F
MOBRIDGE       MOSUNNY   82  56  40 CALM      30.08F
RAPID CITY     MOSUNNY   84  44  24 N13       30.16F
$$

  *****  SOME WEATHER IN NEARBY STATES *****

CITY           SKY/WX    TMP DP  RH WIND       PRES   REMARKS
GLASGOW MT     SUNNY     92  44  19 SE9       30.10F
GREAT FALLS MT MOSUNNY   92  37  14 VRB3G16   30.10F
CHEYENNE WY    CLOUDY    61  55  81 S7        30.38S
SCOTTSBLUFF NE CLOUDY    77  50  38 SW9       30.24F
OMAHA NE       MOSUNNY   82  52  35 N9        30.10F
DES MOINES IA  MOSUNNY   82  53  36 N7        30.07F
DAVENPORT IA   SUNNY     79  60  52 NW7       30.05F
CHICAGO IL     MOSUNNY   74  57  55 NE9       30.01F
EAU CLAIRE WI  PTSUNNY   78  57  48 W10       30.01F
LA CROSSE WI   NOT AVBL
$$

  *****  SOME NATIONAL WEATHER *****

CITY           SKY/WX    TMP DP  RH WIND       PRES   REMARKS
LA GUARDIA NY  PTSUNNY   79  50  36 SW15      29.99F
RALEIGH NC     MOSUNNY   78  63  59 E8        30.04F
ATLANTA GA     MOSUNNY   84  54  35 N7        30.03S
NEW ORLEANS LA MOSUNNY   87  62  43 N6        30.00F
OKLAHOMA CITY  LGT RAIN  72  68  87 SE10      29.98F
ALBUQUERQUE NM MOSUNNY   88  52  29 SE3       30.15F
SALT LAKE CITY PTSUNNY   79  57  46 CALM      30.18F
LOS ANGELES CA PTSUNNY   76  61  59 W13       29.94S
BOISE ID       SUNNY     92  50  23 VRB6      30.07F
SEATTLE WA     MOSUNNY   82  49  31 N13       30.14F
$$

*** WEATHER ACROSS MANITOBA...SASKATCHEWAN AND ONTARIO ***
                ***ONTARIO***

CITY           SKY/WX    TMP DP  RH WIND       PRES   REMARKS
GERALDTON      CLOUDY    63  54  72 N6        29.91R
THUNDER BAY    PTSUNNY   70  54  56 CALM      29.92F
SIOUX LOOKOUT  PTSUNNY   73  48  40 N8G17     29.98S
TORONTO        PTSUNNY   72  50  46 W8        29.93S
BIG TROUT LK   MOSUNNY   70  46  43 N10G18    29.96S
PICKLE LAKE    PTSUNNY   72  43  35 NW6G21    29.95S
DRYDEN         SUNNY     75  48  38 NW8       29.99S
KENORA         PTSUNNY   79  55  44 NW13      30.01F
$$
                *** MANITOBA***

CITY           SKY/WX    TMP DP  RH WIND       PRES   REMARKS
BRANDON        PTSUNNY   81  55  41 SW5       30.09F
DAUPHIN        SUNNY     81  63  54 SW6       30.06F
ISLAND LAKE    NOT AVBL
PILOT MOUND      N/A     77  55  47 NW5         N/A
THE PAS        MOSUNNY   84  55  37 SW5       30.05S
THOMPSON       MOSUNNY   82  55  39 E6        30.05F
WINNIPEG       MOSUNNY   82  57  42 NW12      30.04F
LYNN LAKE      SUNNY     86  50  28 E6        30.06F
CHURCHILL      SUNNY     68  50  52 E10       30.11S
GILLAM         CLOUDY    75  52  43 E5        30.07S
$$
                ***SASKATCHEWAN***

CITY           SKY/WX    TMP DP  RH WIND       PRES   REMARKS
ESTEVAN        MOSUNNY   77  55  47 N3        30.15F
KINDERSLEY     MOSUNNY   84  66  54 S10       30.04F
LLOYDMINSTER   MOSUNNY   81  64  57 E2        30.07S
PRINCE ALBERT  NOT AVBL
REGINA         PTSUNNY   77  57  50 S9        30.12F
YORKTON        SUNNY     81  54  39 VRB3      30.12F
N. BATTLEFORD    N/A     81  63  54 SE15G21   30.08F
LA RONGE       NOT AVBL
SASKATOON      PTSUNNY   81  63  54 SE14      30.10S
SWIFT CURRENT  SUNNY     91  43  18 W9G18     30.05F
$$
NOTE: THESE ARE AUTOMATED STATIONS WITH LIMITED QUALITY CONTROL
      "FAIR" INDICATES FEW OR NO CLOUDS BELOW 12,000 FEET WITH NO
      SIGNIFICANT WEATHER AND/OR OBSTRUCTIONS TO VISIBILITY.
      SKY/WX - SKY CONDITION AND SIGNIFICANT WEATHER.
      TMP - AIR TEMPERATURE.    DP   - DEWPOINT TEMPERATURE.
      RH  - RELATIVE HUMIDITY.  PRES - PRESSURE.
      HX  - HEAT INDEX.         WCI  - WIND CHILL INDEX.
$



USA.gov is the U.S. government's official web portal to all federal, state and local government web resources and services.